sat.trackr.live / text

‹ back to catalog

ONEWEB-0128

NORAD 47274 · 2020-100S

PAYLOAD ACTIVE UNKNOWN

§ Identity

Operator
Country
UK
Launch date
2020-12-18
Launch site
VOSTO
Launch vehicle
Mass (kg)
RCS (m²)

Purposes: comms

External: N2YO · Heavens-Above · Gunter

§ Orbital elements

Epoch: 2026-09-20T04:11:26.471616Z

Period
109.72 min
Inclination
87.8973°
Eccentricity
0.0001966
Mean motion
13.12444378 rev/d
Perigee alt
1,212.2 km
Apogee alt
1,215.2 km
Semi-major
7,591.9 km
B*
1.0014e-3
RAAN
331.8192°
Arg perigee
90.3990°
Mean anomaly
269.7364°
Rev number
27,720

§ Raw data

ONEWEB-01281 47274U 20100S   26263.17461194  .00000373  00000+0  10014-2 0  99992 47274  87.8973 331.8192 0001966  90.3990 269.7364 13.12444378277209

JSON: /api/v1/satellites/47274 · /tle

For live sub-satellite position, see the globe view (requires WebGL).

§ Visibility from observer

Set your observer location to see the next 7 days of passes ≥ 10°. The values pass through the URL so the page stays shareable.

No JS? Fill the form by hand. The geolocation button needs JavaScript.